User: anonymous   Login
Location: La Coruña
(43.3623°N, 8.4115°W)
Time: 14:26:50
(UTC+02:00)
Language:

STARLINK-1099 - Orbit

View from above orbital plane
View from above orbital plane
View from above satellite
View from above satellite

Ground track
Ground track

The orbit data is extracted from the following two-line orbital elements,

1 44918U 20001E   20095.25001157 -.00006318  00000-0 -41485-3 0  9991
2 44918  53.0023 347.6441 0002340  75.2971 181.3501 15.05574446 14229
Epoch (UTC): 04 April 2020 06:00:01
Eccentricity: 0.0002340
inclination: 53.0023°
perigee height: 548 km
apogee height: 551 km
right ascension of ascending node: 347.6441°
argument of perigee: 75.2971°
revolutions per day: 15.05574446
mean anomaly at epoch: 181.3501°
orbit number at epoch: 1422

The dashed part of the orbit path shows where the satellite is in the earth's shadow,  

DLR